Location: ???????
(55.3754°N, 39.3545°E)
Time: 07:27:40
(UTC+00:00)

Cosmos 2369 Rocket - Pass Details

Date: 14 April 2026
Orbit: 829 x 850 km, 71.0° (Epoch: 12 May)

Event Time Altitude Azimuth Distance (km) Brightness Sun altitude
Rises 16:58:02 0° 319° (NW) 3,390 6.8 -5.1°
Reaches altitude 10° 17:01:00 10° 334° (NNW) 2,452 5.5 -5.5°
Maximum altitude 17:05:27 23° 27° (NNE) 1,689 3.8 -6.0°
Drops below altitude 10° 17:09:53 10° 79° (E) 2,442 4.1 -6.6°
Enters shadow 17:11:34 - 89° (E) 2,957 4.5 -6.8°
